sat.trackr.live / text

‹ back to catalog

FLOCK 4BE-1

NORAD 60518 · 2024-149BC

PAYLOAD ACTIVE UNKNOWN

§ Identity

Operator
Country
US
Launch date
2024-08-16
Launch site
AFWTR
Launch vehicle
Mass (kg)
RCS (m²)

Purposes: earth_obs

External: N2YO · Heavens-Above · Gunter

§ Orbital elements

Epoch: 2026-05-25T03:34:57.667584Z

Period
93.40 min
Inclination
97.3780°
Eccentricity
0.0004099
Mean motion
15.41717753 rev/d
Perigee alt
438.2 km
Apogee alt
443.8 km
Semi-major
6,819.2 km
B*
4.1356e-4
RAAN
229.9250°
Arg perigee
39.4953°
Mean anomaly
320.6592°
Rev number
9,882

§ Raw data

FLOCK 4BE-11 60518U 24149BC  26145.14927856  .00017399  00000+0  41356-3 0  99902 60518  97.3780 229.9250 0004099  39.4953 320.6592 15.41717753 98825

JSON: /api/v1/satellites/60518 · /tle

For live sub-satellite position, see the globe view (requires WebGL).

§ Visibility from observer

Set your observer location to see the next 7 days of passes ≥ 10°. The values pass through the URL so the page stays shareable.

No JS? Fill the form by hand. The geolocation button needs JavaScript.